[[{"header":{"parameterUnit":"m.s-1","parameterCategory":1,"la1":30.2991,"la2":30.254,"lo1":-89.0895,"lo2":-89.0444,"dy":0.0017,"dx":0.0017,"nx":28,"ny":28,"refTime":"2023-11-01T03:00:00:Z","depth":0,"parameterNumber":2,"parameterNumberName":"U-component_of_WINDS"},"data":[0,0,0,0,0,0,0,0,0,0,0,0,0,0,0,0,0,0,0,0,0,0,0,0,0,0,0,0,0,0,0,0,0,0,0,0,0,0,0,0,0,0,0,0,0,0,0,0,0,0,0,0,0,0,0,0,0,0,-3.757,-3.757,0,-3.7628,-3.7629,-3.763,-3.7538,-3.7535,-3.7532,-3.7529,-3.7588,-3.7592,-3.7596,0,0,0,0,0,0,0,0,0,0,0,0,0,-3.7377,-3.7381,-3.757,-3.757,-3.7571,-3.7628,-3.7629,-3.763,-3.7539,-3.7535,-3.7531,-3.7527,-3.7586,-3.7591,-3.7597,0,0,0,0,0,0,0,0,0,0,0,0,0,-3.7451,-3.7382,-3.757,-3.7533,-3.753,-3.7628,-3.7629,-3.763,-3.7539,-3.7535,-3.753,-3.7525,-3.7584,-3.7591,-3.7598,-3.7734,0,0,-3.7618,-3.7621,0,0,0,0,0,0,0,0,-3.7447,-3.7458,-3.7537,-3.7535,-3.7532,-3.7571,-3.7582,-3.7665,-3.7541,-3.7536,-3.7529,-3.7523,-3.7586,-3.7592,-3.7613,-3.7737,-3.774,-3.7619,-3.7623,-3.7626,-3.7628,0,0,0,0,0,0,0,-3.7442,-3.7455,-3.7593,-3.7539,-3.7536,-3.7512,-3.7518,-3.7598,-3.7587,-3.7536,-3.7529,-3.7538,-3.7583,-3.7607,-3.7614,-3.7741,-3.7619,-3.7625,-3.7629,-3.7631,-3.7978,-3.7983,0,0,0,0,0,0,-3.7441,-3.7451,-3.7591,-3.7595,-3.7477,-3.752,-3.7526,-3.7563,-3.7586,-3.7584,-3.7542,-3.7533,-3.7598,-3.7606,-3.7616,-3.7777,-3.7626,-3.7632,-3.7636,-3.7973,-3.7979,-3.7985,0,0,0,0,0,0,-3.7437,-3.7455,-3.7589,-3.7521,-3.7536,-3.7528,-3.7571,-3.7567,-3.7591,-3.759,-3.7587,-3.7568,-3.7595,-3.7606,-3.7705,-3.7778,-3.7635,-3.7641,-3.7967,-3.7975,-3.7982,-3.81,0,0,0,0,0,0,-3.7432,-3.7454,-3.7506,-3.7523,-3.754,-3.7678,-3.7576,-3.7572,-3.7603,-3.7592,-3.7614,-3.7613,-3.7592,-3.7696,-3.7712,-3.7784,-3.7647,-3.796,-3.7971,-3.798,-3.809,-3.8111,-3.8129,0,0,0,0,0,-3.7426,-3.7537,-3.7509,-3.7527,-3.7606,-3.7682,-3.7692,-3.7666,-3.7609,-3.7661,-3.766,-3.7612,-3.7767,-3.7707,-3.7724,-3.78,-3.7956,-3.7968,-3.7979,-3.8081,-3.8107,-3.8129,0,0,0,0,0,0,-3.7529,-3.7539,-3.7508,-3.7628,-3.7655,-3.7667,-3.7732,-3.7694,-3.7738,-3.7726,-3.7691,-3.7697,-3.7803,-3.7811,-3.7744,-3.7933,-3.7852,-3.7868,-3.7923,-3.7948,-3.7967,-3.7963,-3.7652,0,0,0,0,0,-3.7565,-3.7627,-3.7632,-3.7738,-3.7753,-3.7741,-3.7773,-3.775,-3.7777,-3.7787,-3.7794,-3.7821,-3.7876,-3.7912,-3.7963,-3.8091,-3.8094,-3.8151,-3.8171,-3.8187,-3.8201,-3.8268,-3.8294,-3.8023,-3.8023,-3.8023,0,0,-3.7642,-3.7655,-3.7696,-3.7759,-3.7777,-3.7841,-3.7751,-3.7823,-3.787,-3.7798,-3.7892,-3.7898,-3.7926,-3.804,-3.809,-3.805,-3.8276,-3.8202,-3.8215,-3.822,-3.8283,-3.8308,-3.8331,-3.8031,-3.8029,-3.8028,0,0,-3.7814,-3.783,-3.792,-3.794,-3.7969,-3.7959,-3.7981,-3.7998,-3.8,-3.8093,-3.8041,-3.8096,-3.8191,-3.8213,-3.8236,-3.8416,-3.8373,-3.8434,-3.8536,-3.8602,-3.8624,-3.8642,-3.8706,-3.8729,-3.8447,-3.8448,-3.8448,0,-3.7905,-3.8,-3.797,-3.8046,-3.8075,-3.8013,-3.8103,-3.8124,-3.8168,-3.8189,-3.8143,-3.826,-3.8275,-3.8393,-3.8436,-3.8458,-3.8481,-3.8431,-3.8623,-3.8641,-3.8658,-3.8718,-3.8742,-3.8455,-3.8454,-3.8453,-3.8453,0,-3.811,-3.8177,-3.8246,-3.829,-3.8326,-3.8409,-3.839,-3.8431,-3.8405,-3.8401,-3.8496,-3.8512,-3.8564,-3.859,-3.8566,-3.8705,-3.8678,-3.8629,-3.8546,-3.8692,-3.8748,-3.877,-3.8465,-3.8462,-3.846,-3.8458,0,0,-3.8349,-3.8375,-3.8401,-3.8419,-3.8446,-3.8497,-3.8576,-3.8627,-3.8662,-3.8695,-3.8759,-3.8841,-3.8795,-3.8822,-3.8799,-3.8858,-3.8998,-3.88,-3.88,-3.8836,-3.9151,-3.9188,-3.9215,-3.897,-3.8974,-3.8978,-3.9148,0,-3.8519,-3.8656,-3.8631,-3.8765,-3.8825,-3.8768,-3.8836,-3.886,-3.8858,-3.8909,-3.8906,-3.8964,-3.8899,-3.8915,-3.897,-3.8969,-3.9061,-3.8957,-3.9029,-3.9032,-3.9024,-3.9244,-3.9284,-3.9444,-3.917,-3.9174,-3.9176,0,-3.8737,-3.8777,-3.8916,-3.8933,-3.8957,-3.902,-3.9064,-3.9114,-3.9139,-3.9133,-3.9163,-3.913,-3.9208,-3.9125,-3.9232,-3.9162,-3.919,-3.9194,-3.92,-3.9205,-3.9113,-3.9255,-3.9495,-3.9519,-3.9211,-3.9208,-3.9205,0,-3.8896,-3.8985,-3.9079,-3.9097,-3.9119,-3.9164,-3.9176,-3.9196,-3.9228,-3.9267,-3.9287,-3.9335,-3.9361,-3.9398,-3.9378,-3.932,-3.9488,-3.9404,-3.9485,-3.9485,-3.9522,-3.952,-3.9769,-3.9542,-3.9541,-3.9541,-3.954,0,-3.9088,-3.9176,-3.9151,-3.9209,-3.9305,-3.9275,-3.9371,-3.9375,-3.9394,-3.9451,-3.9404,-3.9459,-3.9429,-3.9482,-3.9467,-3.9557,-3.9569,-3.9566,-3.9561,-3.957,-3.957,-3.9588,-3.9576,-3.9547,-3.9546,-3.9545,-3.9544,0,-3.9282,-3.9269,-3.9368,-3.9381,-3.9386,-3.9456,-3.9466,-3.952,-3.9515,-3.9588,-3.9603,-3.9594,-3.9653,-3.9637,-3.9702,-3.9691,-3.9805,-3.9786,-3.9797,-3.9792,-3.9873,-3.9866,-4.0142,-4.0176,-3.9927,-3.993,-3.9932,0,-3.9406,-3.9472,-3.9491,-3.9526,-3.9541,-3.9599,-3.9631,-3.9604,-3.9639,-3.9673,-3.9723,-3.9778,-3.9821,-3.9918,-3.9917,-3.9966,-3.9947,-4.004,-3.9954,-3.9961,-3.9948,-3.9944,-3.995,-4.0058,-4.006,-4.0063,-4.0065,0,-3.9627,-3.9617,-3.9665,-3.9712,-3.9752,-3.9787,-3.9818,-3.9849,-3.9824,-3.9867,-3.9927,-3.996,-4.0025,-4.008,-4.0125,-4.0136,-4.0097,-4.0092,-4.0113,-4.0123,-4.0126,-4.0125,-3.9843,-4.0086,-4.0084,-4.0082,-4.0081,-4.008,-3.9788,-3.9844,-3.9866,-3.9921,-3.9942,-3.9972,-4.0023,-4.0023,-4.0073,-4.0124,-4.0105,-4.0174,-4.0197,-4.0252,-4.0269,-4.0322,-4.0286,-4.0317,-4.0325,-4.0333,-4.0343,-4.0118,-4.033,-4.033,-4.0329,-4.0328,-4.0328,0,-4.0006,-4.0017,-4.0069,-4.0113,-4.0157,-4.0116,-4.0148,-4.0187,-4.0248,-4.0273,-4.0315,-4.0384,-4.0437,-4.044,-4.049,-4.0532,-4.0515,-4.0546,-4.0542,-4.0545,-4.0372,-4.0349,-4.0558,-4.0558,-4.0558,-4.0558,-4.0558,-4.0558,-4.0124,-4.0216,-4.0208,-4.0309,-4.0319,-4.0386,-4.0408,-4.0435,-4.0454,-4.0533,-4.0577,-4.0579,-4.0595,-4.0645,-4.0692,-4.0691,-4.0711,-4.0749,-4.0742,-4.058,-4.0557,-4.0535,-4.0513,-4.0754,-4.0754,-4.091,-4.0911,-4.0912]},{"header":{"parameterUnit":"m.s-1","parameterCategory":1,"la1":30.2991,"la2":30.254,"lo1":-89.0895,"lo2":-89.0444,"dy":0.0017,"dx":0.0017,"nx":28,"ny":28,"refTime":"2023-11-01T03:00:00:Z","depth":0,"parameterNumber":3,"parameterNumberName":"V-component_of_WINDS"},"data":[0,0,0,0,0,0,0,0,0,0,0,0,0,0,0,0,0,0,0,0,0,0,0,0,0,0,0,0,0,0,0,0,0,0,0,0,0,0,0,0,0,0,0,0,0,0,0,0,0,0,0,0,0,0,0,0,0,0,-2.0674,-2.0675,0,-2.0754,-2.0755,-2.0756,-2.0764,-2.0763,-2.0762,-2.0762,-2.0841,-2.0844,-2.0847,0,0,0,0,0,0,0,0,0,0,0,0,0,-2.0527,-2.0529,-2.0674,-2.0675,-2.0676,-2.0754,-2.0755,-2.0756,-2.0764,-2.0763,-2.0762,-2.0761,-2.084,-2.0844,-2.0847,0,0,0,0,0,0,0,0,0,0,0,0,0,-2.0597,-2.053,-2.0674,-2.069,-2.0692,-2.0754,-2.0755,-2.0756,-2.0764,-2.0763,-2.0762,-2.0761,-2.0839,-2.0843,-2.0847,-2.0898,0,0,-2.0861,-2.0863,0,0,0,0,0,0,0,0,-2.0593,-2.0602,-2.0687,-2.0689,-2.0691,-2.0748,-2.0732,-2.0804,-2.0765,-2.0737,-2.0762,-2.076,-2.0811,-2.0817,-2.0835,-2.0902,-2.0906,-2.0861,-2.0864,-2.0865,-2.0867,0,0,0,0,0,0,0,-2.0588,-2.0599,-2.0706,-2.0688,-2.0691,-2.0692,-2.07,-2.0746,-2.078,-2.0739,-2.074,-2.0749,-2.0812,-2.0831,-2.0837,-2.0907,-2.0861,-2.0865,-2.0867,-2.0869,-2.1018,-2.1019,0,0,0,0,0,0,-2.0581,-2.0595,-2.0703,-2.0708,-2.0638,-2.0695,-2.0705,-2.0731,-2.0779,-2.0785,-2.075,-2.0749,-2.0824,-2.0832,-2.084,-2.0901,-2.0865,-2.0869,-2.0872,-2.1016,-2.1018,-2.102,0,0,0,0,0,0,-2.0577,-2.059,-2.07,-2.0652,-2.0666,-2.0699,-2.0728,-2.0733,-2.0752,-2.0788,-2.0793,-2.0763,-2.0823,-2.0834,-2.0883,-2.0904,-2.0871,-2.0875,-2.1015,-2.1017,-2.1019,-2.1026,0,0,0,0,0,0,-2.0573,-2.0589,-2.0609,-2.0652,-2.0668,-2.0743,-2.073,-2.0736,-2.076,-2.0759,-2.0802,-2.0807,-2.0823,-2.0877,-2.0888,-2.091,-2.0879,-2.1013,-2.1016,-2.1018,-2.1024,-2.1028,-2.1031,0,0,0,0,0,-2.0568,-2.0608,-2.061,-2.0624,-2.0695,-2.0745,-2.0754,-2.0772,-2.0761,-2.0781,-2.0804,-2.0806,-2.09,-2.0882,-2.0894,-2.0918,-2.1012,-2.1015,-2.1018,-2.1022,-2.1027,-2.1031,0,0,0,0,0,0,-2.0567,-2.0614,-2.0617,-2.0673,-2.0705,-2.0746,-2.0772,-2.0777,-2.0812,-2.081,-2.083,-2.0839,-2.0888,-2.0908,-2.0887,-2.0969,-2.0955,-2.0961,-2.0954,-2.0959,-2.0963,-2.0956,-2.0882,0,0,0,0,0,-2.0573,-2.061,-2.0649,-2.0695,-2.071,-2.0738,-2.0761,-2.0772,-2.0805,-2.0819,-2.0845,-2.0877,-2.0914,-2.0937,-2.0973,-2.1027,-2.1035,-2.1049,-2.1053,-2.1055,-2.106,-2.1088,-2.1094,-2.103,-2.103,-2.103,0,0,-2.0586,-2.0617,-2.0639,-2.0695,-2.0721,-2.0758,-2.075,-2.079,-2.0817,-2.0825,-2.0873,-2.0894,-2.093,-2.0982,-2.1006,-2.1,-2.108,-2.1059,-2.1061,-2.1064,-2.1092,-2.1098,-2.1103,-2.1032,-2.1031,-2.1031,0,0,-2.0629,-2.0657,-2.0697,-2.0723,-2.0762,-2.078,-2.079,-2.083,-2.0844,-2.0893,-2.09,-2.0932,-2.0995,-2.1021,-2.1042,-2.1093,-2.1096,-2.1104,-2.1123,-2.1151,-2.1156,-2.116,-2.1177,-2.1184,-2.1109,-2.1109,-2.1109,0,-2.064,-2.0698,-2.0717,-2.0756,-2.078,-2.0789,-2.0829,-2.0853,-2.0902,-2.0917,-2.091,-2.0989,-2.1014,-2.1071,-2.1084,-2.1101,-2.1111,-2.1099,-2.1154,-2.1158,-2.1163,-2.118,-2.1186,-2.1109,-2.1109,-2.1109,-2.1109,0,-2.0709,-2.0748,-2.0775,-2.0823,-2.085,-2.0889,-2.0913,-2.0938,-2.0946,-2.0965,-2.1014,-2.1044,-2.1086,-2.11,-2.1109,-2.1158,-2.1153,-2.115,-2.1136,-2.117,-2.1185,-2.1192,-2.111,-2.111,-2.111,-2.111,0,0,-2.0754,-2.081,-2.082,-2.0841,-2.0884,-2.0915,-2.0954,-2.0995,-2.1015,-2.1048,-2.1081,-2.1134,-2.113,-2.1154,-2.1166,-2.119,-2.1227,-2.1183,-2.1184,-2.1189,-2.1281,-2.1283,-2.129,-2.1229,-2.123,-2.1231,-2.1278,0,-2.0801,-2.0872,-2.0889,-2.0949,-2.0985,-2.0993,-2.1027,-2.1057,-2.1075,-2.1107,-2.1127,-2.1164,-2.1157,-2.1171,-2.1196,-2.1217,-2.1245,-2.1214,-2.1258,-2.126,-2.1248,-2.1299,-2.1301,-2.1344,-2.1284,-2.1286,-2.1286,0,-2.0866,-2.09,-2.0964,-2.1002,-2.1017,-2.1048,-2.1086,-2.1117,-2.115,-2.1161,-2.1188,-2.1197,-2.1236,-2.1221,-2.1276,-2.1254,-2.1273,-2.1286,-2.1288,-2.1292,-2.1275,-2.1304,-2.1358,-2.1364,-2.1296,-2.1296,-2.1295,0,-2.089,-2.0953,-2.0999,-2.1017,-2.1062,-2.1083,-2.1103,-2.1135,-2.1158,-2.1191,-2.1206,-2.1244,-2.1264,-2.1292,-2.131,-2.1297,-2.1363,-2.1349,-2.1372,-2.1372,-2.1385,-2.1384,-2.1443,-2.1399,-2.1399,-2.1398,-2.1398,0,-2.0941,-2.0979,-2.101,-2.1039,-2.1081,-2.1101,-2.1142,-2.1162,-2.119,-2.1221,-2.1231,-2.126,-2.1282,-2.1314,-2.1328,-2.1371,-2.138,-2.1389,-2.1393,-2.1388,-2.1387,-2.14,-2.1398,-2.14,-2.14,-2.1399,-2.1399,0,-2.0976,-2.0999,-2.1049,-2.1088,-2.1098,-2.1128,-2.1161,-2.1188,-2.1206,-2.1245,-2.1255,-2.1283,-2.1321,-2.1342,-2.1389,-2.1399,-2.1446,-2.1448,-2.1434,-2.1436,-2.1457,-2.1454,-2.1526,-2.1536,-2.1486,-2.1487,-2.1487,0,-2.1006,-2.1036,-2.1078,-2.11,-2.112,-2.1155,-2.1178,-2.1198,-2.1222,-2.1262,-2.1283,-2.1322,-2.1353,-2.1413,-2.1437,-2.1473,-2.1475,-2.1498,-2.1481,-2.1475,-2.1475,-2.1472,-2.1475,-2.1501,-2.1501,-2.1502,-2.1502,0,-2.1057,-2.1067,-2.1101,-2.1138,-2.1166,-2.1197,-2.1227,-2.1244,-2.1268,-2.1294,-2.1333,-2.1358,-2.1406,-2.1443,-2.1481,-2.15,-2.1505,-2.1507,-2.1514,-2.151,-2.15,-2.1505,-2.1442,-2.1505,-2.1505,-2.1505,-2.1505,-2.1504,-2.1091,-2.1117,-2.115,-2.1187,-2.1212,-2.1239,-2.1266,-2.1288,-2.132,-2.1361,-2.1371,-2.1411,-2.1442,-2.1493,-2.1514,-2.1545,-2.1541,-2.1551,-2.1554,-2.1556,-2.1556,-2.1496,-2.1552,-2.1552,-2.1552,-2.1552,-2.1552,0,-2.1141,-2.1163,-2.1197,-2.1239,-2.1267,-2.127,-2.1303,-2.1326,-2.1362,-2.1391,-2.1422,-2.1466,-2.1502,-2.1528,-2.1565,-2.1585,-2.1588,-2.1593,-2.1592,-2.1596,-2.1558,-2.1548,-2.159,-2.159,-2.159,-2.159,-2.159,-2.159,-2.1171,-2.1215,-2.1228,-2.1284,-2.1305,-2.1345,-2.1364,-2.1389,-2.1412,-2.1461,-2.1491,-2.1508,-2.1536,-2.1574,-2.1607,-2.1614,-2.1626,-2.1632,-2.1639,-2.1603,-2.1599,-2.1595,-2.1585,-2.1635,-2.1635,-2.1674,-2.1674,-2.1674]}]]